カタログに戻る

STARLINK-38082

運用中通信SSO
NORAD 69993·PAYLOAD·🇺🇸 United States

打ち上げ Jul 11, 2026 から Vandenberg Space Force Base

Loading…

次のパス (今後24時間)

TLE

最新Source: CelesTrak SupGP

元期: Sep 15, 2026, 03:34 UTC

1 69993C 26159U   26258.14909722 -.02677200  00000+0 -46430-1 0  2587
2 69993  97.2850  99.9198 0002203  87.9250 104.1044 15.52275702    13

AllMySatでSTARLINK-38082をリアルタイム追跡

Download on the App Store